Date String (YYYY-MM-DD hh:mm:ss) UTC,Instrument flags,absolute air pressure of the measurement (hPa),sample flow rate (lpm),inlet stack bypass flow (lpm),air temperature of the measurement (°C),ambient temperature measured by the external sensor (°C),aerosol sample conditioner tube jacket temperature (°C),OPC LED temperature (°C),internal box temperature (°C),relative humidity of the measurement (%),span deviation,mass concentration of particles derived from Lorenz-Mie calculation of OPC scattering (μg/m³),mass concentration of particles derived from Lorenz-Mie calculation of OPC scattering (μg/m³),mass concentration of particles derived from Lorenz-Mie calculation of OPC scattering (μg/m³)
DateTimeUTC,F1_M11,P_M11,Q1_M11,Q2_M11,T1_M11,T2_M11,T3_M11,T4_M11,T5_M11,U1_M11,ZSPAN_M11,X2_M11,X0_M11,X1_M11
2024-06-17 11:00:00,SystemResetWarning,0821.3,4.99,000.00,030.4,029.8,000.0,038.7,032.1,031.1,0000.0,0007.04,0016.30,0005.64
2024-06-17 11:01:00,SystemResetWarning,0821.4,4.99,000.00,030.4,029.8,000.0,038.7,032.2,031.0,0000.0,0006.99,0016.34,0005.61
2024-06-17 11:02:00,SystemResetWarning,0821.4,5.01,000.00,030.5,029.8,000.0,038.7,032.2,030.9,0000.0,0006.94,0017.16,0005.59
2024-06-17 11:03:00,SystemResetWarning,0821.3,5.01,000.00,030.5,029.9,000.0,038.8,032.2,030.9,0000.0,0006.87,0018.14,0005.55
2024-06-17 11:04:00,SystemResetWarning,0821.3,5.00,000.00,030.5,029.9,000.0,038.8,032.2,030.8,0000.0,0006.83,0018.56,0005.53
2024-06-17 11:05:00,SystemResetWarning,0821.3,4.99,000.00,030.5,029.9,000.0,038.8,032.2,030.8,0000.0,0006.81,0018.78,0005.50
2024-06-17 11:06:00,SystemResetWarning,0821.3,4.99,000.00,030.5,030.0,000.0,038.8,032.3,030.8,0000.0,0006.79,0018.81,0005.48
2024-06-17 11:07:00,SystemResetWarning,0821.3,5.00,000.00,030.6,030.0,000.0,038.9,032.3,030.8,0000.0,0006.74,0017.64,0005.48
2024-06-17 11:08:00,SystemResetWarning,0821.3,5.01,000.00,030.6,030.0,000.0,038.9,032.3,030.7,0000.0,0006.77,0017.98,0005.47
2024-06-17 11:09:00,SystemResetWarning,0821.3,5.01,000.00,030.6,030.0,000.0,038.9,032.4,030.7,0000.0,0006.78,0019.05,0005.46
2024-06-17 11:10:00,SystemResetWarning,0821.3,4.99,000.00,030.6,030.1,000.0,038.9,032.4,030.5,0001.3,0006.80,0021.45,0005.50
2024-06-17 11:11:00,SystemResetWarning,0821.3,5.00,000.00,030.7,030.1,000.0,039.0,032.4,030.3,0001.5,0006.86,0021.77,0005.54
2024-06-17 11:12:00,SystemResetWarning,0821.3,5.00,000.00,030.7,030.1,000.0,039.0,032.4,030.3,0002.0,0006.97,0021.95,0005.55
2024-06-17 11:13:00,SystemResetWarning,0821.3,5.00,000.00,030.7,030.1,000.0,039.0,032.4,030.2,0002.3,0007.06,0020.60,0005.58
2024-06-17 11:14:00,SystemResetWarning,0821.3,5.00,000.00,030.7,030.1,000.0,039.0,032.4,030.2,0002.5,0007.10,0020.13,0005.58
2024-06-17 11:15:00,SystemResetWarning,0821.3,5.00,000.00,030.7,030.2,000.0,039.0,032.5,030.2,0002.6,0007.10,0019.74,0005.58
2024-06-17 11:16:00,SystemResetWarning,0821.3,5.00,000.00,030.8,030.2,000.0,039.1,032.5,030.1,0002.7,0007.11,0020.39,0005.59
2024-06-17 11:17:00,SystemResetWarning,0821.3,5.01,000.00,030.8,030.2,000.0,039.1,032.5,030.0,0002.6,0007.17,0021.24,0005.60
2024-06-17 11:18:00,SystemResetWarning,0821.3,5.00,000.00,030.8,030.2,000.0,039.1,032.5,030.0,0003.1,0007.25,0021.72,0005.62
2024-06-17 11:19:00,SystemResetWarning,0821.3,5.00,000.00,030.8,030.2,000.0,039.1,032.5,030.0,0003.2,0007.29,0021.37,0005.61
2024-06-17 11:20:00,SystemResetWarning,0821.3,5.00,000.00,030.8,030.2,000.0,039.2,032.5,030.0,0002.6,0007.31,0020.53,0005.62
2024-06-17 11:21:00,SystemResetWarning,0821.3,4.99,000.00,030.8,030.2,000.0,039.2,032.6,030.4,0001.0,0007.31,0019.31,0005.61
2024-06-17 11:22:00,SystemResetWarning,0821.4,5.00,000.00,030.9,030.3,000.0,039.2,032.6,030.2,0000.0,0007.22,0019.44,0005.59
2024-06-17 11:23:00,SystemResetWarning,0821.4,5.00,000.00,030.9,030.3,000.0,039.2,032.6,030.1,0000.0,0007.19,0019.97,0005.60
2024-06-17 11:24:00,SystemResetWarning,0821.3,5.00,000.00,030.9,030.3,000.0,039.2,032.6,030.0,0000.0,0007.15,0019.88,0005.60
2024-06-17 11:25:00,SystemResetWarning,0821.3,5.00,000.00,030.9,030.3,000.0,039.2,032.6,030.0,0000.5,0007.12,0019.95,0005.61
2024-06-17 11:26:00,SystemResetWarning,0821.4,5.01,000.00,030.9,030.3,000.0,039.3,032.6,030.0,0000.8,0007.12,0021.37,0005.61
2024-06-17 11:27:00,SystemResetWarning,0821.4,5.01,000.00,030.9,030.3,000.0,039.3,032.7,029.9,0000.1,0007.11,0022.08,0005.60
2024-06-17 11:28:00,SystemResetWarning,0821.4,5.00,000.00,031.0,030.3,000.0,039.3,032.6,029.9,0000.5,0007.01,0020.99,0005.58
2024-06-17 11:29:00,SystemResetWarning,0821.5,5.00,000.00,031.0,030.4,000.0,039.3,032.7,029.9,0000.1,0006.89,0020.17,0005.55
2024-06-17 11:30:00,SystemResetWarning,0821.6,5.00,000.00,031.0,030.4,000.0,039.3,032.7,029.9,-000.1,0006.79,0020.07,0005.52
2024-06-17 11:31:00,SystemResetWarning,0821.9,4.99,000.00,031.0,030.4,000.0,039.3,032.7,029.9,0000.0,0006.73,0020.74,0005.47
2024-06-17 11:32:00,SystemResetWarning,0821.9,4.99,000.00,031.0,030.4,000.0,039.4,032.7,029.9,0000.0,0006.65,0020.07,0005.43
2024-06-17 11:33:00,SystemResetWarning,0822.0,5.00,000.00,031.0,030.4,000.0,039.4,032.7,029.9,0000.0,0006.65,0019.88,0005.41
2024-06-17 11:34:00,SystemResetWarning,0822.0,5.00,000.00,031.0,030.4,000.0,039.4,032.7,029.9,0000.0,0006.57,0019.38,0005.37
2024-06-17 11:35:00,SystemResetWarning,0821.9,5.00,000.00,031.0,030.4,000.0,039.4,032.7,029.9,0000.0,0006.54,0019.46,0005.35
2024-06-17 11:36:00,SystemResetWarning,0821.4,5.00,000.00,031.1,030.4,000.0,039.4,032.8,029.9,0000.0,0006.53,0019.36,0005.35
2024-06-17 11:37:00,SystemResetWarning,0821.4,5.00,000.00,031.1,030.4,000.0,039.4,032.8,029.8,0000.0,0006.52,0017.65,0005.35
2024-06-17 11:38:00,SystemResetWarning,0821.4,5.00,000.00,031.1,030.4,000.0,039.4,032.8,029.9,0000.0,0006.51,0017.69,0005.35
2024-06-17 11:39:00,SystemResetWarning,0821.6,4.98,000.00,031.1,030.4,000.0,039.5,032.8,029.8,0000.0,0006.56,0018.12,0005.36
2024-06-17 11:40:00,SystemResetWarning,0822.0,5.00,000.00,031.1,030.4,000.0,039.5,032.8,029.8,0000.0,0006.63,0018.53,0005.40
2024-06-17 11:41:00,SystemResetWarning,0822.0,5.00,000.00,031.1,030.4,000.0,039.5,032.8,029.8,0000.5,0006.64,0019.01,0005.44
2024-06-17 11:42:00,SystemResetWarning,0822.1,5.00,000.00,031.1,030.5,000.0,039.5,032.8,029.8,0001.1,0006.64,0018.94,0005.50
2024-06-17 11:43:00,SystemResetWarning,0822.0,5.00,000.00,031.1,030.5,000.0,039.5,032.8,029.8,0001.3,0006.67,0018.67,0005.56
2024-06-17 11:44:00,SystemResetWarning,0822.0,5.01,000.00,031.1,030.5,000.0,039.5,032.9,029.9,0001.6,0006.67,0019.11,0005.61
2024-06-17 11:45:00,SystemResetWarning,0821.9,5.00,000.00,031.2,030.5,000.0,039.5,032.9,029.9,0001.6,0006.72,0018.67,0005.67
2024-06-17 11:46:00,SystemResetWarning,0822.0,4.99,000.00,031.2,030.5,000.0,039.5,032.9,029.9,0001.1,0006.80,0018.49,0005.72
2024-06-17 11:47:00,SystemResetWarning,0822.0,4.99,000.00,031.2,030.5,000.0,039.6,032.9,029.9,0001.2,0006.89,0018.23,0005.77
2024-06-17 11:48:00,SystemResetWarning,0821.9,5.00,000.00,031.2,030.5,000.0,039.6,032.9,029.8,0001.3,0006.94,0018.53,0005.82
2024-06-17 11:49:00,SystemResetWarning,0821.9,5.00,000.00,031.2,030.5,000.0,039.6,032.9,029.6,0001.4,0006.97,0017.44,0005.86
2024-06-17 11:50:00,SystemResetWarning,0821.9,5.00,000.00,031.2,030.5,000.0,039.6,032.9,029.6,0001.3,0007.00,0017.51,0005.89
2024-06-17 11:51:00,SystemResetWarning,0821.9,5.01,000.00,031.2,030.5,000.0,039.6,032.9,029.5,0001.3,0007.08,0017.68,0005.91
2024-06-17 11:52:00,SystemResetWarning,0822.0,5.00,000.00,031.2,030.5,000.0,039.6,032.9,029.4,0000.8,0007.19,0017.43,0005.93
2024-06-17 11:53:00,SystemResetWarning,0822.0,5.01,000.00,031.2,030.5,000.0,039.6,032.9,029.3,0000.5,0007.25,0016.47,0005.95
2024-06-17 11:54:00,SystemResetWarning,0822.0,5.00,000.00,031.2,030.5,000.0,039.6,032.9,029.3,0000.4,0007.31,0016.95,0005.95
2024-06-17 11:55:00,SystemResetWarning,0822.0,5.00,000.00,031.2,030.5,000.0,039.6,032.9,029.2,0000.7,0007.43,0017.08,0005.94
2024-06-17 11:56:00,SystemResetWarning,0821.7,5.00,000.00,031.2,030.5,000.0,039.6,032.9,029.2,0000.6,0007.43,0019.00,0005.91
2024-06-17 11:57:00,SystemResetWarning,0821.6,5.00,000.00,031.2,030.5,000.0,039.6,032.9,029.1,0001.5,0007.39,0019.02,0005.89
2024-06-17 11:58:00,SystemResetWarning,0821.7,5.01,000.00,031.2,030.5,000.0,039.6,033.0,029.2,0001.4,0007.32,0019.09,0005.86
2024-06-17 11:59:00,SystemResetWarning,0821.7,5.00,000.00,031.2,030.5,000.0,039.6,032.9,029.4,0001.3,0007.28,0018.99,0005.81
